TVS7QV LKTB-LGZA

Flight info

Callsign TVS7QV
Flight time 2h 5m
Altitude 36000
Route MIKOV DCT PETOV/N0449F350 DCT SPL DCT AIOSA DCT LATAN UM872 ASTUS
Aircraft B738/M-SDE3FGHIJ1RWXY/LB1

Departure

Time 2026-05-04 13:20
Airport Brno-Tuřany Airport (LKTB)

Arrival

Time 2026-05-04 15:26
Airport Zakynthos International Airport Dionysios Solomos (LGZA)
Time Latitude Longitude Altitude Speed Heading
2026-05-04 13:08 49.15382 16.69155 807 ft 0 kts 187°
2026-05-04 13:13 49.15374 16.69154 786 ft 5 kts 187°
2026-05-04 13:14 49.15350 16.69132 787 ft 5 kts 238°
2026-05-04 13:14 49.15352 16.69057 786 ft 9 kts 277°
2026-05-04 13:14 49.15360 16.68957 786 ft 10 kts 277°
2026-05-04 13:14 49.15368 16.68844 786 ft 13 kts 277°
2026-05-04 13:15 49.15381 16.68689 786 ft 15 kts 276°
2026-05-04 13:15 49.15395 16.68535 786 ft 14 kts 278°
2026-05-04 13:15 49.15408 16.68386 786 ft 14 kts 277°
2026-05-04 13:15 49.15419 16.68261 786 ft 10 kts 277°
2026-05-04 13:16 49.15430 16.68133 786 ft 13 kts 277°
2026-05-04 13:16 49.15440 16.68007 786 ft 12 kts 277°
2026-05-04 13:16 49.15450 16.67894 786 ft 10 kts 278°
2026-05-04 13:16 49.15460 16.67790 786 ft 10 kts 277°
2026-05-04 13:17 49.15467 16.67690 786 ft 7 kts 264°
2026-05-04 13:17 49.15443 16.67647 786 ft 4 kts 210°
2026-05-04 13:17 49.15439 16.67644 786 ft 0 kts 206°
2026-05-04 13:18 49.15431 16.67639 786 ft 5 kts 201°
2026-05-04 13:18 49.15385 16.67626 785 ft 8 kts 187°
2026-05-04 13:18 49.15329 16.67616 782 ft 7 kts 187°
2026-05-04 13:18 49.15288 16.67619 781 ft 2 kts 131°
2026-05-04 13:19 49.15287 16.67636 781 ft 0 kts 97°
2026-05-04 13:19 49.15286 16.67646 781 ft 5 kts 97°
2026-05-04 13:19 49.15256 16.67970 782 ft 66 kts 97°
2026-05-04 13:20 49.15168 16.69019 782 ft 131 kts 96°
2026-05-04 13:20 49.15021 16.70670 892 ft 170 kts 100°
2026-05-04 13:20 49.14882 16.72423 1686 ft 171 kts 103°
2026-05-04 13:20 49.14715 16.74331 2152 ft 191 kts 104°
2026-05-04 13:21 49.14519 16.76440 2641 ft 210 kts 102°
2026-05-04 13:21 49.14299 16.78709 3085 ft 222 kts 105°
2026-05-04 13:21 49.13501 16.80792 3264 ft 240 kts 141°
2026-05-04 13:21 49.11973 16.81779 3830 ft 241 kts 178°
2026-05-04 13:22 49.10302 16.81324 4503 ft 253 kts 207°
2026-05-04 13:22 49.09002 16.79579 5330 ft 257 kts 234°
2026-05-04 13:22 49.08179 16.77189 6330 ft 253 kts 243°
2026-05-04 13:22 49.07401 16.74746 7103 ft 260 kts 243°
2026-05-04 13:23 49.06604 16.72291 7946 ft 260 kts 242°
2026-05-04 13:23 49.05574 16.70007 8688 ft 264 kts 220°
2026-05-04 13:23 49.03946 16.68690 9477 ft 267 kts 198°
2026-05-04 13:23 49.02118 16.68045 10224 ft 274 kts 192°
2026-05-04 13:24 49.00167 16.67547 10507 ft 297 kts 191°
2026-05-04 13:24 48.98041 16.67043 10690 ft 321 kts 190°
2026-05-04 13:24 48.95794 16.66505 10921 ft 340 kts 190°
2026-05-04 13:25 48.91017 16.65318 12162 ft 351 kts 191°
2026-05-04 13:25 48.88602 16.64703 12924 ft 353 kts 191°
2026-05-04 13:25 48.86171 16.64079 13633 ft 356 kts 191°
2026-05-04 13:25 48.83713 16.63444 14266 ft 360 kts 191°
2026-05-04 13:26 48.81237 16.62806 14903 ft 363 kts 191°
2026-05-04 13:26 48.78733 16.62160 15537 ft 366 kts 191°
2026-05-04 13:26 48.76213 16.61494 16150 ft 369 kts 192°
2026-05-04 13:26 48.73670 16.60802 16701 ft 374 kts 192°
2026-05-04 13:27 48.71128 16.60105 17266 ft 378 kts 192°
2026-05-04 13:27 48.68528 16.59391 17892 ft 380 kts 192°
2026-05-04 13:27 48.66569 16.58854 18355 ft 383 kts 192°
2026-05-04 13:28 48.64508 16.58291 18732 ft 386 kts 192°
2026-05-04 13:28 48.61854 16.57567 19192 ft 390 kts 192°
2026-05-04 13:28 48.59164 16.56835 19670 ft 394 kts 192°
2026-05-04 13:29 48.56453 16.56100 20149 ft 398 kts 192°
2026-05-04 13:29 48.53753 16.55367 20611 ft 402 kts 192°
2026-05-04 13:29 48.50987 16.54617 21027 ft 406 kts 192°
2026-05-04 13:29 48.48199 16.53864 21529 ft 409 kts 192°
2026-05-04 13:30 48.45383 16.53104 21984 ft 412 kts 192°
2026-05-04 13:30 48.42548 16.52338 22417 ft 416 kts 192°
2026-05-04 13:30 48.39683 16.51565 22826 ft 421 kts 192°
2026-05-04 13:30 48.36784 16.50785 23243 ft 425 kts 192°
2026-05-04 13:31 48.33866 16.50002 23669 ft 427 kts 192°
2026-05-04 13:31 48.30944 16.49218 24029 ft 430 kts 192°
2026-05-04 13:31 48.28036 16.48438 24392 ft 432 kts 191°
2026-05-04 13:31 48.25065 16.47642 24721 ft 435 kts 192°
2026-05-04 13:32 48.22089 16.46845 25023 ft 439 kts 192°
2026-05-04 13:32 48.19079 16.46042 25442 ft 439 kts 191°
2026-05-04 13:32 48.16862 16.45453 25773 ft 438 kts 193°
2026-05-04 13:33 48.14454 16.44812 26021 ft 441 kts 192°
2026-05-04 13:33 48.11416 16.44001 26232 ft 446 kts 192°
2026-05-04 13:33 48.08392 16.43196 26513 ft 449 kts 192°
2026-05-04 13:34 48.05314 16.42378 26863 ft 450 kts 192°
2026-05-04 13:34 48.02223 16.41558 27148 ft 452 kts 193°
2026-05-04 13:34 47.99117 16.40732 27417 ft 455 kts 192°
2026-05-04 13:34 47.95990 16.39902 27654 ft 458 kts 192°
2026-05-04 13:35 47.92846 16.39068 27935 ft 460 kts 193°
2026-05-04 13:35 47.86515 16.37396 28393 ft 467 kts 192°
2026-05-04 13:35 47.83351 16.36564 28646 ft 469 kts 192°
2026-05-04 13:36 47.80139 16.35719 28996 ft 469 kts 193°
2026-05-04 13:36 47.76927 16.34877 29357 ft 469 kts 191°
2026-05-04 13:36 47.73712 16.34035 29719 ft 469 kts 192°
2026-05-04 13:36 47.70503 16.33197 30074 ft 468 kts 192°
2026-05-04 13:37 47.67297 16.32358 30408 ft 467 kts 192°
2026-05-04 13:37 47.64105 16.31524 30759 ft 466 kts 192°
2026-05-04 13:37 47.61803 16.30924 30934 ft 467 kts 193°
2026-05-04 13:38 47.59272 16.30265 31104 ft 468 kts 192°
2026-05-04 13:38 47.56079 16.29433 31530 ft 464 kts 193°
2026-05-04 13:38 47.52904 16.28605 31887 ft 462 kts 193°
2026-05-04 13:39 47.49729 16.27777 32117 ft 464 kts 193°
2026-05-04 13:39 47.46547 16.26948 32330 ft 465 kts 193°
2026-05-04 13:39 47.43361 16.26119 32599 ft 465 kts 192°
2026-05-04 13:39 47.40190 16.25296 33018 ft 462 kts 192°
2026-05-04 13:40 47.37027 16.24478 33363 ft 460 kts 192°
2026-05-04 13:40 47.33916 16.23674 33576 ft 461 kts 192°
2026-05-04 13:40 47.30750 16.22857 33803 ft 462 kts 192°
2026-05-04 13:40 47.27591 16.22043 34118 ft 460 kts 192°
2026-05-04 13:41 47.24444 16.21233 34397 ft 459 kts 192°
2026-05-04 13:41 47.21303 16.20426 34627 ft 458 kts 192°
2026-05-04 13:41 47.18159 16.19618 34848 ft 458 kts 192°
2026-05-04 13:42 47.11864 16.18003 35002 ft 462 kts 192°
2026-05-04 13:42 47.08740 16.17202 35012 ft 462 kts 192°
2026-05-04 13:42 47.06467 16.16621 35007 ft 461 kts 192°
2026-05-04 13:43 47.03745 16.15927 35005 ft 458 kts 192°
2026-05-04 13:43 46.97495 16.14335 35016 ft 454 kts 192°
2026-05-04 13:44 46.91279 16.12752 35015 ft 453 kts 192°
2026-05-04 13:44 46.85114 16.11187 35016 ft 452 kts 192°
2026-05-04 13:45 46.78916 16.09616 35021 ft 452 kts 192°
2026-05-04 13:45 46.72707 16.08047 35017 ft 454 kts 192°
2026-05-04 13:46 46.66476 16.06476 35015 ft 455 kts 192°
2026-05-04 13:46 46.60235 16.04906 35025 ft 456 kts 192°
2026-05-04 13:47 46.54019 16.03346 35023 ft 457 kts 192°
2026-05-04 13:47 46.51795 16.02789 35022 ft 458 kts 192°
2026-05-04 13:48 46.49013 16.02093 35021 ft 458 kts 192°
2026-05-04 13:48 46.42742 16.00525 35025 ft 459 kts 192°
2026-05-04 13:49 46.36523 15.98974 35021 ft 459 kts 192°
2026-05-04 13:49 46.30196 15.97686 35013 ft 461 kts 183°
2026-05-04 13:50 46.23787 15.98313 35021 ft 462 kts 176°
2026-05-04 13:50 46.17389 15.99200 35028 ft 461 kts 176°
2026-05-04 13:51 46.11002 16.00039 35020 ft 460 kts 177°
2026-05-04 13:51 46.04673 16.00825 35019 ft 459 kts 177°
2026-05-04 13:52 45.96102 16.01864 35031 ft 459 kts 177°
2026-05-04 13:53 45.89979 16.02603 35043 ft 459 kts 177°
2026-05-04 13:54 45.80427 16.03757 35048 ft 460 kts 177°
2026-05-04 13:55 45.70868 16.04908 35044 ft 461 kts 177°
2026-05-04 13:55 45.61280 16.06059 35028 ft 462 kts 177°
2026-05-04 13:56 45.54911 16.06822 35025 ft 462 kts 177°
2026-05-04 13:57 45.45291 16.07970 35022 ft 463 kts 177°
2026-05-04 13:58 45.39912 16.08610 35023 ft 463 kts 177°
2026-05-04 13:58 45.30311 16.09750 35032 ft 463 kts 177°
2026-05-04 13:59 45.23885 16.10511 35027 ft 463 kts 177°
2026-05-04 14:00 45.14282 16.11644 35031 ft 464 kts 177°
2026-05-04 14:00 45.04632 16.12780 35034 ft 464 kts 177°
2026-05-04 14:01 44.98190 16.13535 35026 ft 465 kts 177°
2026-05-04 14:02 44.88562 16.14661 35042 ft 465 kts 177°
2026-05-04 14:02 44.83144 16.15294 35036 ft 466 kts 177°
2026-05-04 14:03 44.77285 16.15976 35051 ft 466 kts 177°
2026-05-04 14:04 44.67614 16.17099 35063 ft 468 kts 177°
2026-05-04 14:04 44.61128 16.17850 35056 ft 468 kts 178°
2026-05-04 14:05 44.51404 16.18973 35078 ft 469 kts 178°
2026-05-04 14:06 44.44947 16.19717 35097 ft 469 kts 178°
2026-05-04 14:06 44.38438 16.20465 35091 ft 469 kts 178°
2026-05-04 14:07 44.31930 16.21211 35096 ft 469 kts 178°
2026-05-04 14:07 44.26526 16.21829 35101 ft 469 kts 178°
2026-05-04 14:08 44.20372 16.22532 35094 ft 469 kts 178°
2026-05-04 14:09 44.10608 16.23644 35106 ft 469 kts 178°
2026-05-04 14:10 44.00847 16.24752 35100 ft 469 kts 178°
2026-05-04 14:10 43.94383 16.25484 35107 ft 469 kts 178°
2026-05-04 14:11 43.87883 16.26218 35108 ft 469 kts 178°
2026-05-04 14:11 43.78126 16.27317 35103 ft 469 kts 178°
2026-05-04 14:12 43.71628 16.28047 35116 ft 468 kts 178°
2026-05-04 14:13 43.69527 16.28283 35117 ft 469 kts 178°
2026-05-04 14:13 43.63399 16.28970 35113 ft 469 kts 178°
2026-05-04 14:14 43.56900 16.29697 35137 ft 469 kts 178°
2026-05-04 14:14 43.47240 16.31861 35128 ft 474 kts 160°
2026-05-04 14:15 43.35265 16.39340 35126 ft 475 kts 157°
2026-05-04 14:16 43.26234 16.44940 35108 ft 475 kts 157°
2026-05-04 14:17 43.17205 16.50460 35116 ft 477 kts 157°
2026-05-04 14:18 43.15244 16.51657 35115 ft 477 kts 157°
2026-05-04 14:19 43.03464 16.58829 35107 ft 478 kts 157°
2026-05-04 14:19 42.97430 16.62493 35102 ft 478 kts 158°
2026-05-04 14:20 42.91337 16.66184 35108 ft 478 kts 158°
2026-05-04 14:20 42.85271 16.69851 35105 ft 478 kts 158°
2026-05-04 14:21 42.76177 16.75334 35108 ft 479 kts 158°
2026-05-04 14:21 42.70083 16.78998 35110 ft 479 kts 158°
2026-05-04 14:22 42.63974 16.82663 35107 ft 480 kts 158°
2026-05-04 14:22 42.62049 16.83817 35107 ft 480 kts 158°
2026-05-04 14:23 42.56803 16.86955 35104 ft 481 kts 158°
2026-05-04 14:24 42.50726 16.90585 35108 ft 481 kts 158°
2026-05-04 14:24 42.44600 16.94235 35106 ft 481 kts 158°
2026-05-04 14:25 42.38468 16.97882 35109 ft 481 kts 158°
2026-05-04 14:25 42.29272 17.03336 35105 ft 481 kts 158°
2026-05-04 14:26 42.23177 17.06941 35107 ft 482 kts 158°
2026-05-04 14:26 42.17030 17.10569 35109 ft 483 kts 158°
2026-05-04 14:27 42.10871 17.14197 35102 ft 483 kts 158°
2026-05-04 14:27 42.08972 17.15314 35105 ft 483 kts 158°
2026-05-04 14:28 42.06763 17.16613 35107 ft 484 kts 158°
2026-05-04 14:28 42.00637 17.20209 35107 ft 484 kts 158°
2026-05-04 14:29 41.88352 17.27715 35105 ft 486 kts 154°
2026-05-04 14:30 41.82404 17.31893 35106 ft 486 kts 153°
2026-05-04 14:31 41.73423 17.38213 35107 ft 486 kts 154°
2026-05-04 14:32 41.61388 17.46521 35107 ft 487 kts 154°
2026-05-04 14:32 41.56558 17.49837 35111 ft 487 kts 154°
2026-05-04 14:33 41.50955 17.53678 35107 ft 487 kts 154°
2026-05-04 14:34 41.44921 17.57808 35110 ft 488 kts 154°
2026-05-04 14:34 41.38880 17.61934 35109 ft 488 kts 154°
2026-05-04 14:35 41.32868 17.66029 35109 ft 488 kts 154°
2026-05-04 14:35 41.26818 17.70143 35109 ft 488 kts 154°
2026-05-04 14:36 41.20767 17.74251 35104 ft 489 kts 154°
2026-05-04 14:36 41.14705 17.78358 35108 ft 489 kts 154°
2026-05-04 14:37 41.08676 17.82434 35109 ft 490 kts 154°
2026-05-04 14:37 41.03800 17.85725 35111 ft 491 kts 154°
2026-05-04 14:38 40.98083 17.89576 35106 ft 491 kts 154°
2026-05-04 14:39 40.91988 17.93674 35111 ft 492 kts 154°
2026-05-04 14:39 40.85922 17.97743 35109 ft 492 kts 154°
2026-05-04 14:40 40.76757 18.03877 35128 ft 493 kts 154°
2026-05-04 14:40 40.70644 18.07956 35127 ft 492 kts 154°
2026-05-04 14:41 40.64570 18.12002 35128 ft 492 kts 154°
2026-05-04 14:42 40.52345 18.20119 35111 ft 492 kts 155°
2026-05-04 14:42 40.50550 18.21308 35112 ft 492 kts 155°
2026-05-04 14:43 40.47650 18.23228 35112 ft 491 kts 155°
2026-05-04 14:43 40.41588 18.27234 35110 ft 491 kts 155°
2026-05-04 14:44 40.35483 18.31260 35108 ft 491 kts 155°
2026-05-04 14:44 40.29381 18.35277 35103 ft 491 kts 155°
2026-05-04 14:45 40.23274 18.39288 35109 ft 491 kts 155°
2026-05-04 14:45 40.17172 18.43289 35134 ft 491 kts 155°
2026-05-04 14:46 40.11097 18.47263 35119 ft 492 kts 155°
2026-05-04 14:46 40.04965 18.51267 35112 ft 493 kts 155°
2026-05-04 14:47 39.98818 18.55272 35111 ft 494 kts 155°
2026-05-04 14:47 39.97054 18.56419 35111 ft 494 kts 155°
2026-05-04 14:48 39.93920 18.58458 35113 ft 495 kts 155°
2026-05-04 14:48 39.87755 18.62460 35112 ft 496 kts 155°
2026-05-04 14:49 39.81580 18.66461 35102 ft 496 kts 155°
2026-05-04 14:49 39.75390 18.70464 35110 ft 497 kts 155°
2026-05-04 14:50 39.69206 18.74455 35115 ft 497 kts 155°
2026-05-04 14:50 39.63057 18.78415 35132 ft 497 kts 155°
2026-05-04 14:51 39.56856 18.82400 35107 ft 497 kts 155°
2026-05-04 14:51 39.50651 18.86381 35118 ft 497 kts 155°
2026-05-04 14:52 39.44449 18.90352 35117 ft 498 kts 155°
2026-05-04 14:52 39.42709 18.91465 35117 ft 498 kts 155°
2026-05-04 14:53 39.39442 18.93553 35117 ft 498 kts 155°
2026-05-04 14:53 39.33230 18.97517 35116 ft 498 kts 155°
2026-05-04 14:54 39.27363 19.02200 35108 ft 499 kts 134°
2026-05-04 14:54 39.22569 19.08647 35121 ft 498 kts 133°
2026-05-04 14:55 39.17778 19.15031 35122 ft 499 kts 133°
2026-05-04 14:55 39.12903 19.21400 35115 ft 500 kts 134°
2026-05-04 14:56 39.08003 19.27744 35117 ft 500 kts 134°
2026-05-04 14:56 39.03094 19.34086 35117 ft 500 kts 134°
2026-05-04 14:57 38.98215 19.40382 35120 ft 500 kts 134°
2026-05-04 14:57 38.96852 19.42138 35121 ft 500 kts 134°
2026-05-04 14:58 38.94627 19.45005 35120 ft 500 kts 134°
2026-05-04 14:58 38.90539 19.50264 35127 ft 501 kts 134°
2026-05-04 14:59 38.87229 19.54517 34609 ft 508 kts 134°
2026-05-04 14:59 38.84728 19.57726 33999 ft 507 kts 134°
2026-05-04 14:59 38.79768 19.64079 32606 ft 508 kts 134°
2026-05-04 15:00 38.77268 19.67276 31904 ft 508 kts 134°
2026-05-04 15:00 38.74767 19.70471 31321 ft 506 kts 134°
2026-05-04 15:00 38.72286 19.73636 30854 ft 502 kts 134°
2026-05-04 15:01 38.67367 19.79905 29855 ft 495 kts 134°
2026-05-04 15:01 38.64939 19.82994 29307 ft 491 kts 134°
2026-05-04 15:01 38.62520 19.86068 28777 ft 487 kts 134°
2026-05-04 15:01 38.60161 19.89063 28279 ft 483 kts 134°
2026-05-04 15:02 38.57785 19.92077 27773 ft 479 kts 134°
2026-05-04 15:02 38.55432 19.95060 27299 ft 475 kts 134°
2026-05-04 15:02 38.54168 19.96661 27038 ft 472 kts 134°
2026-05-04 15:03 38.52104 19.99274 26618 ft 469 kts 134°
2026-05-04 15:03 38.49795 20.02195 26129 ft 465 kts 134°
2026-05-04 15:03 38.47506 20.05089 25655 ft 462 kts 133°
2026-05-04 15:04 38.45258 20.07926 25195 ft 459 kts 133°
2026-05-04 15:04 38.42995 20.10774 24715 ft 456 kts 135°
2026-05-04 15:04 38.40419 20.13115 24203 ft 456 kts 157°
2026-05-04 15:04 38.37383 20.14073 23756 ft 447 kts 181°
2026-05-04 15:05 38.34367 20.13541 23161 ft 433 kts 205°
2026-05-04 15:05 38.31871 20.11630 22804 ft 408 kts 231°
2026-05-04 15:05 38.30710 20.09826 22556 ft 391 kts 246°
2026-05-04 15:05 38.29798 20.06697 22176 ft 371 kts 263°
2026-05-04 15:06 38.28558 20.02646 21708 ft 379 kts 241°
2026-05-04 15:06 38.26611 20.00365 21367 ft 392 kts 214°
2026-05-04 15:06 38.24009 19.99255 20983 ft 400 kts 193°
2026-05-04 15:07 38.18468 19.98508 20141 ft 401 kts 192°
2026-05-04 15:07 38.16626 19.98171 19866 ft 404 kts 191°
2026-05-04 15:07 38.14178 19.97829 19466 ft 411 kts 188°
2026-05-04 15:08 38.12222 19.97680 19158 ft 413 kts 185°
2026-05-04 15:08 38.09347 19.97692 18694 ft 413 kts 180°
2026-05-04 15:08 38.07452 19.97860 18395 ft 413 kts 176°
2026-05-04 15:09 38.04610 19.98343 17895 ft 411 kts 172°
2026-05-04 15:09 38.01811 19.99057 17428 ft 409 kts 168°
2026-05-04 15:09 37.99069 19.99976 16975 ft 406 kts 164°
2026-05-04 15:10 37.92967 20.02700 16065 ft 397 kts 155°
2026-05-04 15:10 37.90524 20.04289 15635 ft 394 kts 149°
2026-05-04 15:10 37.86736 20.07456 14912 ft 390 kts 142°
2026-05-04 15:11 37.84623 20.09574 14491 ft 387 kts 138°
2026-05-04 15:11 37.82618 20.11837 14054 ft 385 kts 134°
2026-05-04 15:11 37.80741 20.14228 13592 ft 382 kts 130°
2026-05-04 15:11 37.78998 20.16746 13127 ft 379 kts 127°
2026-05-04 15:12 37.77400 20.19376 12691 ft 375 kts 123°
2026-05-04 15:12 37.75951 20.22088 12266 ft 371 kts 120°
2026-05-04 15:12 37.74819 20.24447 11910 ft 367 kts 116°
2026-05-04 15:13 37.74355 20.25526 11730 ft 365 kts 113°
2026-05-04 15:13 37.73721 20.28568 11188 ft 355 kts 86°
2026-05-04 15:13 37.73900 20.31638 10887 ft 345 kts 79°
2026-05-04 15:14 37.74146 20.34616 10672 ft 337 kts 80°
2026-05-04 15:14 37.74312 20.37483 10525 ft 328 kts 82°
2026-05-04 15:14 37.74410 20.40324 10381 ft 319 kts 83°
2026-05-04 15:14 37.74463 20.43087 10243 ft 311 kts 84°
2026-05-04 15:15 37.74492 20.45765 10118 ft 302 kts 84°
2026-05-04 15:15 37.74509 20.48365 10034 ft 292 kts 84°
2026-05-04 15:15 37.74523 20.50973 9551 ft 297 kts 84°
2026-05-04 15:16 37.74538 20.56052 8886 ft 282 kts 85°
2026-05-04 15:16 37.74543 20.58502 8569 ft 275 kts 85°
2026-05-04 15:16 37.73143 20.62749 7955 ft 274 kts 148°
2026-05-04 15:17 37.71385 20.63528 7733 ft 269 kts 169°
2026-05-04 15:17 37.67692 20.64697 7200 ft 285 kts 161°
2026-05-04 15:17 37.65842 20.65655 6898 ft 289 kts 154°
2026-05-04 15:18 37.64075 20.66872 6611 ft 289 kts 147°
2026-05-04 15:18 37.62428 20.68310 6313 ft 288 kts 141°
2026-05-04 15:18 37.60907 20.69945 6013 ft 286 kts 135°
2026-05-04 15:19 37.58307 20.73691 5459 ft 283 kts 123°
2026-05-04 15:19 37.57242 20.75766 5186 ft 281 kts 118°
2026-05-04 15:19 37.55579 20.80154 4660 ft 274 kts 107°
2026-05-04 15:20 37.55020 20.82430 4418 ft 269 kts 101°
2026-05-04 15:20 37.54665 20.84709 4199 ft 264 kts 95°
2026-05-04 15:20 37.54492 20.86986 4007 ft 258 kts 89°
2026-05-04 15:20 37.54480 20.89233 3769 ft 255 kts 85°
2026-05-04 15:21 37.54627 20.91410 3538 ft 250 kts 76°
2026-05-04 15:21 37.55394 20.93294 3307 ft 239 kts 39°
2026-05-04 15:21 37.58267 20.93975 3147 ft 203 kts 351°
2026-05-04 15:22 37.59627 20.93728 2980 ft 193 kts 348°
2026-05-04 15:22 37.60917 20.93362 2746 ft 187 kts 344°
2026-05-04 15:22 37.63353 20.92515 2255 ft 171 kts 342°
2026-05-04 15:23 37.64487 20.92121 2039 ft 168 kts 343°
2026-05-04 15:23 37.65603 20.91734 1817 ft 164 kts 342°
2026-05-04 15:23 37.66653 20.91370 1605 ft 151 kts 343°
2026-05-04 15:23 37.67621 20.91035 1419 ft 143 kts 341°
2026-05-04 15:24 37.69618 20.90394 1089 ft 151 kts 345°
2026-05-04 15:24 37.71634 20.89699 687 ft 150 kts 343°
2026-05-04 15:25 37.72642 20.89333 430 ft 151 kts 345°
2026-05-04 15:25 37.73643 20.88966 201 ft 150 kts 345°
2026-05-04 15:25 37.74634 20.88596 26 ft 146 kts 346°
2026-05-04 15:26 37.75774 20.88170 22 ft 16 kts 343°
2026-05-04 15:26 37.75843 20.88171 21 ft 6 kts 20°
2026-05-04 15:26 37.75869 20.88124 23 ft 3 kts 195°
2026-05-04 15:27 37.75845 20.88137 21 ft 6 kts 152°
2026-05-04 15:27 37.75690 20.88203 22 ft 12 kts 163°
2026-05-04 15:28 37.75540 20.88261 21 ft 10 kts 158°
2026-05-04 15:28 37.75490 20.88314 20 ft 9 kts 122°
2026-05-04 15:28 37.75437 20.88439 20 ft 5 kts 99°
2026-05-04 15:29 37.75443 20.88484 19 ft 5 kts 73°
2026-05-04 15:30 37.75448 20.88506 21 ft 0 kts 72°